DW8343 Weather Reports


time (UTC)temp
F
wind
direction
speed
knots
gust
knots
rain 1hr
in
rain 24hr
in
rain mn
in
humidity
%
barometer
mb
20260903195113 97 344 1.7 5.2 0.00 0.00 0.00 47 1013.2
20260903194608 98 8 0.9 5.2 0.00 0.00 0.00 45 1013.2
20260903194103 98 270 2.6 5.2 0.00 0.00 0.00 45 1013.2
20260903193559 97 97 0.9 5.2 0.00 0.00 0.00 46 1013.3
20260903193054 98 253 1.7 2.6 0.00 0.00 0.00 45 1013.3
20260903192551 96 317 0.9 3.5 0.00 0.00 0.00 47 1013.4
20260903192046 97 54 0.9 3.5 0.00 0.00 0.00 49 1013.5
20260903191537 96 286 1.7 7.8 0.00 0.00 0.00 50 1013.4
20260903191037 96 11 2.6 5.2 0.00 0.00 0.00 48 1013.5
20260903190536 95 40 2.6 5.2 0.00 0.00 0.00 49 1013.7
20260903190030 97 71 1.7 3.5 0.00 0.00 0.00 48 1013.7
20260903185526 96 254 1.7 3.5 0.00 0.00 0.00 48 1013.8
20260903185021 95 353 2.6 3.5 0.00 0.00 0.00 50 1013.9
20260903184518 96 0 1.7 6.1 0.00 0.00 0.00 49 1014.0
20260903184017 94 227 2.6 6.1 0.00 0.00 0.00 50 1014.2
20260903183516 94 227 2.6 6.1 0.00 0.00 0.00 50 1014.2
20260903183012 94 14 0.9 5.2 0.00 0.00 0.00 53 1014.2
20260903182510 94 256 0.9 3.5 0.00 0.00 0.00 54 1014.4
20260903182007 95 269 1.7 6.1 0.00 0.00 0.00 49 1014.3
20260903181500 94 227 0.9 5.2 0.00 0.00 0.00 52 1014.4
20260903180959 94 25 2.6 3.5 0.00 0.00 0.00 52 1014.5
20260903180455 93 113 3.5 6.1 0.00 0.00 0.00 52 1014.5
20260903175954 93 55 2.6 7.0 0.00 0.00 0.00 53 1014.5
20260903175448 94 276 1.7 6.1 0.00 0.00 0.00 53 1014.5
20260903174947 93 29 1.7 5.2 0.00 0.00 0.00 54 1014.7
20260903174443 92 115 1.7 5.2 0.00 0.00 0.00 54 1014.7
20260903173942 92 44 3.5 7.0 0.00 0.00 0.00 56 1014.8
20260903173438 93 232 0.9 5.2 0.00 0.00 0.00 55 1014.9
20260903172933 92 71 1.7 7.8 0.00 0.00 0.00 54 1015.0
20260903172428 92 69 2.6 3.5 0.00 0.00 0.00 55 1015.0
20260903171924 92 60 1.7 2.6 0.00 0.00 0.00 55 1014.9
20260903171419 91 223 2.6 3.5 0.00 0.00 0.00 55 1014.9
20260903170919 91 351 0.9 6.1 0.00 0.00 0.00 58 1015.1
20260903170413 92 225 4.3 6.1 0.00 0.00 0.00 55 1015.2
20260903165912 91 75 1.7 6.1 0.00 0.00 0.00 59 1015.2
20260903165407 90 72 1.7 3.5 0.00 0.00 0.00 57 1015.2
20260903164902 92 202 1.7 3.5 0.00 0.00 0.00 56 1015.3
20260903164402 90 342 0.9 2.6 0.00 0.00 0.00 57 1015.3
20260903163901 89 336 0.9 6.1 0.00 0.00 0.00 60 1015.3
20260903163358 90 221 0.9 2.6 0.00 0.00 0.00 58 1015.4
20260903162853 90 271 0.9 1.7 0.00 0.00 0.00 58 1015.5
20260903162350 90 189 0.9 6.1 0.00 0.00 0.00 60 1015.6
20260903161845 89 275 0.9 3.5 0.00 0.00 0.00 60 1015.3
20260903161340 89 332 1.7 3.5 0.00 0.00 0.00 61 1015.5
20260903160836 88 46 0.9 3.5 0.00 0.00 0.00 63 1015.4
20260903160335 87 22 2.6 5.2 0.00 0.00 0.00 64 1015.4
20260903155833 88 274 1.7 3.5 0.00 0.00 0.00 62 1015.3
20260903155329 87 35 1.7 5.2 0.00 0.00 0.00 64 1015.5
20260903154824 87 294 1.7 2.6 0.00 0.00 0.00 65 1015.4
20260903154320 86 53 1.7 7.0 0.00 0.00 0.00 66 1015.4
20260903153816 86 185 1.7 5.2 0.00 0.00 0.00 66 1015.3
20260903153311 85 225 0.9 5.2 0.00 0.00 0.00 66 1015.5
20260903152809 85 42 2.6 5.2 0.00 0.00 0.00 68 1015.5
20260903152306 85 34 1.7 3.5 0.00 0.00 0.00 68 1015.6
20260903151803 84 60 4.3 7.0 0.00 0.00 0.00 68 1015.7
20260903151254 85 241 0.9 3.5 0.00 0.00 0.00 68 1015.8
20260903150753 86 240 1.7 2.6 0.00 0.00 0.00 66 1015.6
20260903150248 84 69 1.7 2.6 0.00 0.00 0.00 69 1015.8
20260903145744 84 309 0.0 2.6 0.00 0.00 0.00 70 1015.8
20260903145239 84 195 1.7 7.8 0.00 0.00 0.00 70 1015.9
20260903144737 83 277 1.7 3.5 0.00 0.00 0.00 70 1016.1
20260903144233 83 32 1.7 6.1 0.00 0.00 0.00 71 1015.8
20260903143729 82 59 0.9 7.0 0.00 0.00 0.00 72 1016.2
20260903143225 82 171 0.9 3.5 0.00 0.00 0.00 73 1016.1
20260903142720 82 287 4.3 8.7 0.00 0.00 0.00 73 1016.1
20260903142217 82 102 4.3 7.0 0.00 0.00 0.00 73 1016.2
20260903141712 82 325 3.5 9.6 0.00 0.00 0.00 74 1016.2
20260903141208 82 34 0.9 3.5 0.00 0.00 0.00 73 1016.2
20260903140703 81 262 3.5 5.2 0.00 0.00 0.00 75 1016.4
20260903140158 80 270 3.5 6.1 0.00 0.00 0.00 75 1016.5
20260903135653 80 14 1.7 6.1 0.00 0.00 0.00 76 1016.5
20260903135148 80 250 2.6 7.0 0.00 0.00 0.00 75 1016.5
20260903134646 80 66 1.7 3.5 0.00 0.00 0.00 75 1016.5
20260903134137 80 84 0.9 5.2 0.00 0.00 0.00 76 1016.2
20260903133635 79 224 1.7 6.1 0.00 0.00 0.00 76 1016.3
20260903133130 80 296 0.9 5.2 0.00 0.00 0.00 76 1016.6
20260903132624 79 188 1.7 1.7 0.00 0.00 0.00 76 1016.4
20260903132120 79 128 0.0 2.6 0.00 0.00 0.00 77 1016.3
20260903131619 78 124 1.7 3.5 0.00 0.00 0.00 78 1016.2
20260903131118 78 134 0.0 2.6 0.00 0.00 0.00 79 1016.2
20260903130616 77 258 0.0 2.6 0.00 0.00 0.00 79 1016.3
20260903130109 77 272 0.0 5.2 0.00 0.00 0.00 79 1016.1
20260903125607 77 198 1.7 3.5 0.00 0.00 0.00 79 1015.9
20260903125102 77 241 0.9 5.2 0.00 0.00 0.00 79 1016.1
20260903124556 77 282 0.9 3.5 0.00 0.00 0.00 79 1016.2
20260903124057 77 249 0.9 3.5 0.00 0.00 0.00 79 1015.9
20260903123556 77 169 2.6 3.5 0.00 0.00 0.00 79 1015.8
20260903123054 77 305 2.6 3.5 0.00 0.00 0.00 79 1015.8
20260903122549 77 21 1.7 2.6 0.00 0.00 0.00 79 1015.8
20260903122048 77 110 1.7 5.2 0.00 0.00 0.00 79 1015.6
20260903121543 77 49 1.7 1.7 0.00 0.00 0.00 79 1015.7
20260903121039 77 263 1.7 2.6 0.00 0.00 0.00 78 1015.4
20260903120538 77 204 2.6 2.6 0.00 0.00 0.00 78 1015.6
20260903120033 77 343 0.0 2.6 0.00 0.00 0.00 78 1015.3
20260903115531 77 243 1.7 5.2 0.00 0.00 0.00 78 1015.4
20260903115026 77 224 2.6 5.2 0.00 0.00 0.00 78 1015.5
20260903114521 77 286 0.0 0.9 0.00 0.00 0.00 78 1015.4
20260903114017 77 240 0.9 1.7 0.00 0.00 0.00 77 1015.3
20260903113512 78 193 0.0 2.6 0.00 0.00 0.00 77 1015.2
20260903113009 78 337 0.9 2.6 0.00 0.00 0.00 76 1015.1
20260903112504 78 135 2.6 5.2 0.00 0.00 0.00 76 1015.1
20260903112003 78 306 1.7 3.5 0.00 0.00 0.00 76 1015.3
20260903111457 78 276 0.9 5.2 0.00 0.00 0.00 76 1015.1
20260903110954 78 77 1.7 3.5 0.00 0.00 0.00 76 1015.2
20260903110449 78 270 0.0 1.7 0.00 0.00 0.00 76 1015.1
20260903105943 78 240 0.0 1.7 0.00 0.00 0.00 76 1015.1
20260903105439 78 207 0.0 2.6 0.00 0.00 0.00 75 1015.0
20260903104938 78 270 3.5 7.0 0.00 0.00 0.00 75 1015.2
20260903104438 78 233 0.9 1.7 0.00 0.00 0.00 75 1015.2
20260903103935 79 260 0.9 3.5 0.00 0.00 0.00 75 1015.0
20260903103430 79 261 0.9 1.7 0.00 0.00 0.00 74 1015.0
20260903102926 79 291 1.7 2.6 0.00 0.00 0.00 74 1014.9
20260903102421 79 264 0.9 2.6 0.00 0.00 0.00 74 1015.0
20260903101920 79 152 1.7 3.5 0.00 0.00 0.00 73 1015.0
20260903101415 79 113 1.7 2.6 0.00 0.00 0.00 73 1015.1
20260903100910 79 60 1.7 3.5 0.00 0.00 0.00 73 1015.1
20260903100405 79 43 0.9 5.2 0.00 0.00 0.00 73 1015.1
20260903095902 80 111 0.9 1.7 0.00 0.00 0.00 73 1015.1
20260903095356 80 42 2.6 5.2 0.00 0.00 0.00 72 1015.0
20260903094851 80 279 1.7 1.7 0.00 0.00 0.00 72 1014.9
20260903094346 80 298 0.0 2.6 0.00 0.00 0.00 72 1014.9
20260903093842 80 291 0.9 1.7 0.00 0.00 0.00 72 1015.0
20260903093337 80 351 0.9 0.9 0.00 0.00 0.00 71 1015.0
20260903092832 80 181 0.9 2.6 0.00 0.00 0.00 71 1015.1
20260903092326 81 263 2.6 3.5 0.00 0.00 0.00 70 1015.1
20260903091825 81 251 1.7 5.2 0.00 0.00 0.00 70 1014.9
20260903091319 81 86 2.6 6.1 0.00 0.00 0.00 69 1014.9
20260903090815 81 48 1.7 2.6 0.00 0.00 0.00 69 1015.0
20260903090315 81 272 2.6 3.5 0.00 0.00 0.00 69 1015.2
20260903085813 82 98 0.9 3.5 0.00 0.00 0.00 68 1015.1
20260903085308 82 161 1.7 2.6 0.00 0.00 0.00 68 1015.1
20260903084806 82 249 0.9 3.5 0.00 0.00 0.00 68 1015.0
20260903084300 82 48 0.9 6.1 0.00 0.00 0.00 68 1015.1
20260903083755 82 201 0.0 1.7 0.00 0.00 0.00 68 1015.1
20260903083250 82 234 0.9 6.1 0.00 0.00 0.00 67 1015.0
20260903082749 82 69 0.9 2.6 0.00 0.00 0.00 67 1015.2
20260903082245 82 50 2.6 6.1 0.00 0.00 0.00 67 1015.1
20260903081745 82 25 3.5 5.2 0.00 0.00 0.00 66 1015.3
20260903081241 82 169 0.9 2.6 0.00 0.00 0.00 66 1015.2
20260903080737 82 75 0.9 1.7 0.00 0.00 0.00 66 1015.1
20260903080234 82 174 1.7 1.7 0.00 0.00 0.00 66 1015.0
20260903075734 83 289 0.0 2.6 0.00 0.00 0.00 65 1014.8
20260903075229 83 248 0.9 2.6 0.00 0.00 0.00 65 1015.0
20260903074728 83 28 1.7 3.5 0.00 0.00 0.00 65 1015.1
20260903074223 83 232 0.9 2.6 0.00 0.00 0.00 64 1014.9
20260903073718 83 91 1.7 3.5 0.00 0.00 0.00 64 1015.1
20260903073213 83 232 0.9 0.9 0.00 0.00 0.00 64 1015.1
20260903072709 83 136 0.9 0.9 0.00 0.00 0.00 63 1015.0
20260903072206 83 244 1.7 3.5 0.00 0.00 0.00 63 1015.1
20260903071702 84 159 0.9 2.6 0.00 0.00 0.00 63 1015.0
20260903071157 84 242 1.7 2.6 0.00 0.00 0.00 63 1015.1
20260903070656 84 48 0.0 0.9 0.00 0.00 0.00 62 1015.2
20260903070152 84 59 1.7 2.6 0.00 0.00 0.00 62 1015.1
20260903065647 84 71 0.9 1.7 0.00 0.00 0.00 62 1015.0
20260903065147 84 135 0.0 3.5 0.00 0.00 0.00 61 1015.1
20260903064646 85 91 0.9 2.6 0.00 0.00 0.00 61 1014.9
20260903064141 85 214 2.6 6.1 0.00 0.00 0.00 60 1015.1
20260903063638 85 354 0.0 6.1 0.00 0.00 0.00 59 1015.1
20260903063138 85 245 1.7 5.2 0.00 0.00 0.00 59 1014.9
20260903062633 85 43 0.9 2.6 0.00 0.00 0.00 58 1015.0
20260903062129 86 354 0.9 8.7 0.00 0.00 0.00 58 1014.9
20260903061624 86 64 1.7 2.6 0.00 0.00 0.00 58 1015.0
20260903061123 86 137 1.7 2.6 0.00 0.00 0.00 58 1015.1
20260903060618 86 153 2.6 5.2 0.00 0.00 0.00 57 1015.0
20260903060114 86 46 0.9 7.0 0.00 0.00 0.00 57 1015.1
20260903055611 86 325 0.9 6.1 0.00 0.00 0.00 57 1014.8
20260903055109 86 139 0.9 2.6 0.00 0.00 0.00 57 1014.9
20260903054604 86 73 1.7 1.7 0.00 0.00 0.00 57 1015.0
20260903054100 87 104 1.7 5.2 0.00 0.00 0.00 57 1014.9
20260903053556 87 194 0.9 5.2 0.00 0.00 0.00 56 1014.9
20260903053052 87 61 1.7 5.2 0.00 0.00 0.00 56 1015.0
20260903052547 87 231 3.5 7.8 0.00 0.00 0.00 55 1014.8
20260903052043 87 271 1.7 3.5 0.00 0.00 0.00 54 1014.9
20260903051542 87 346 3.5 3.5 0.00 0.00 0.00 54 1014.8
20260903051038 87 11 2.6 6.1 0.00 0.00 0.00 54 1014.9
20260903050537 88 24 0.9 2.6 0.00 0.00 0.00 53 1014.8
20260903050033 88 76 1.7 1.7 0.00 0.00 0.00 53 1014.6
20260903045532 88 43 1.7 2.6 0.00 0.00 0.00 52 1014.8
20260903045029 88 234 0.0 2.6 0.00 0.00 0.00 52 1014.7
20260903044525 88 267 0.9 1.7 0.00 0.00 0.00 52 1014.8
20260903044020 88 107 0.0 2.6 0.00 0.00 0.00 51 1014.7
20260903043516 88 318 1.7 2.6 0.00 0.00 0.00 51 1014.7
20260903043015 89 144 1.7 3.5 0.00 0.00 0.00 50 1014.7
20260903042510 89 281 2.6 3.5 0.00 0.00 0.00 50 1014.8
20260903042006 89 52 1.7 2.6 0.00 0.00 0.00 50 1014.9
20260903041502 89 72 1.7 6.1 0.00 0.00 0.00 50 1014.8
20260903040958 89 138 1.7 2.6 0.00 0.00 0.00 50 1014.8
20260903040456 89 251 1.7 5.2 0.00 0.00 0.00 50 1014.7
20260903035953 89 284 0.9 3.5 0.00 0.00 0.00 49 1014.6
20260903035448 89 300 4.3 7.0 0.00 0.00 0.00 49 1014.7
20260903034943 89 230 1.7 2.6 0.00 0.00 0.00 49 1014.6
20260903034437 89 207 1.7 3.5 0.00 0.00 0.00 48 1014.9
20260903033933 90 302 4.3 6.1 0.00 0.00 0.00 48 1014.6
20260903033429 90 46 0.0 6.1 0.00 0.00 0.00 48 1014.6
20260903032929 90 52 3.5 5.2 0.00 0.00 0.00 47 1014.8
20260903032424 90 152 1.7 6.1 0.00 0.00 0.00 47 1014.8
20260903031919 90 211 0.0 2.6 0.00 0.00 0.00 47 1014.8
20260903031419 90 0 0.0 1.7 0.00 0.00 0.00 47 1014.6
20260903030914 90 241 0.0 3.5 0.00 0.00 0.00 46 1014.8
20260903030410 90 280 1.7 1.7 0.00 0.00 0.00 46 1014.7
20260903025906 91 253 0.9 3.5 0.00 0.00 0.00 46 1014.6
20260903025401 91 47 0.0 2.6 0.00 0.00 0.00 45 1014.8
20260903024856 91 43 2.6 3.5 0.00 0.00 0.00 45 1014.7
20260903024350 91 32 1.7 1.7 0.00 0.00 0.00 45 1014.7
20260903023845 91 302 1.7 1.7 0.00 0.00 0.00 45 1014.7
20260903023341 91 70 1.7 2.6 0.00 0.00 0.00 44 1014.6
20260903022836 91 303 2.6 3.5 0.00 0.00 0.00 44 1014.4
20260903022335 92 176 0.9 1.7 0.00 0.00 0.00 44 1014.4
20260903021834 92 74 1.7 3.5 0.00 0.00 0.00 44 1014.5
20260903021330 92 53 0.9 2.6 0.00 0.00 0.00 44 1014.3
20260903020830 92 104 1.7 3.5 0.00 0.00 0.00 44 1014.2
20260903020325 92 320 0.9 2.6 0.00 0.00 0.00 44 1014.2
20260903015819 92 224 0.0 3.5 0.00 0.00 0.00 44 1014.1
20260903015315 92 155 0.9 0.9 0.00 0.00 0.00 44 1014.1
20260903014810 92 56 0.0 0.9 0.00 0.00 0.00 44 1013.9
20260903014309 93 23 0.0 0.9 0.00 0.00 0.00 44 1014.0
20260903013804 93 250 0.9 3.5 0.00 0.00 0.00 43 1013.8
20260903013303 93 342 0.0 1.7 0.00 0.00 0.00 43 1013.8
20260903012803 94 226 0.0 1.7 0.00 0.00 0.00 43 1013.7
20260903012257 94 208 0.0 0.9 0.00 0.00 0.00 43 1013.7
20260903011752 94 273 0.9 1.7 0.00 0.00 0.00 42 1013.5
20260903011251 94 302 0.0 0.9 0.00 0.00 0.00 42 1013.7
20260903010746 94 168 0.0 1.7 0.00 0.00 0.00 42 1013.6
20260903010241 95 138 1.7 2.6 0.00 0.00 0.00 41 1013.5
20260903005740 95 34 0.9 1.7 0.00 0.00 0.00 41 1013.6
20260903005234 95 249 0.9 3.5 0.00 0.00 0.00 40 1013.4
20260903004725 95 27 0.9 1.7 0.00 0.00 0.00 40 1013.4
20260903004221 96 316 1.7 3.5 0.00 0.00 0.00 40 1013.5
20260903003715 96 22 0.9 1.7 0.00 0.00 0.00 40 1013.5
20260903003211 96 23 1.7 3.5 0.00 0.00 0.00 39 1013.4
20260903002706 96 46 1.7 3.5 0.00 0.00 0.00 39 1013.5
20260903002200 96 114 0.9 2.6 0.00 0.00 0.00 39 1013.3
20260903001655 97 215 0.9 3.5 0.00 0.00 0.00 39 1013.4
20260903001155 97 247 0.9 1.7 0.00 0.00 0.00 39 1013.4
20260903000650 97 322 0.0 1.7 0.00 0.00 0.00 39 1013.3
20260903000144 97 58 1.7 5.2 0.00 0.00 0.00 38 1013.5
20260902235642 98 229 3.5 5.2 0.00 0.00 0.00 38 1013.3
20260902235132 98 284 0.0 2.6 0.00 0.00 0.00 37 1013.3
20260902234625 98 283 0.9 1.7 0.00 0.00 0.00 37 1013.3
20260902234124 98 276 0.9 2.6 0.00 0.00 0.00 37 1013.4
20260902233619 98 152 3.5 5.2 0.00 0.00 0.00 37 1013.4
20260902233113 98 320 2.6 3.5 0.00 0.00 0.00 37 1013.5
20260902232608 99 40 3.5 5.2 0.00 0.00 0.00 37 1013.5
20260902232102 99 256 0.9 7.0 0.00 0.00 0.00 36 1013.5
20260902231601 99 180 0.9 6.1 0.00 0.00 0.00 36 1013.4
20260902231056 99 183 0.0 3.5 0.00 0.00 0.00 36 1013.5
20260902230551 99 42 1.7 1.7 0.00 0.00 0.00 36 1013.6
20260902230050 100 253 3.5 6.1 0.00 0.00 0.00 35 1013.6
20260902225546 100 87 0.0 3.5 0.00 0.00 0.00 35 1013.5
20260902225044 100 64 0.9 2.6 0.00 0.00 0.00 34 1013.7
20260902224543 100 312 2.6 7.0 0.00 0.00 0.00 35 1013.6
20260902224039 101 253 2.6 3.5 0.00 0.00 0.00 35 1013.6
20260902223535 101 358 1.7 2.6 0.00 0.00 0.00 34 1013.5
20260902223034 102 44 0.9 2.6 0.00 0.00 0.00 34 1013.6
20260902222533 102 310 0.9 3.5 0.00 0.00 0.00 33 1013.7
20260902222033 101 15 3.5 6.1 0.00 0.00 0.00 33 1013.9
20260902221533 101 291 0.9 0.9 0.00 0.00 0.00 34 1013.9
20260902221027 103 342 0.0 1.7 0.00 0.00 0.00 33 1013.7
20260902220523 101 74 1.7 6.1 0.00 0.00 0.00 33 1013.7
20260902220017 103 272 1.7 2.6 0.00 0.00 0.00 32 1013.7
20260902215514 103 238 2.6 3.5 0.00 0.00 0.00 33 1013.8
20260902215009 102 273 1.7 6.1 0.00 0.00 0.00 34 1013.8
20260902214508 102 299 0.9 5.2 0.00 0.00 0.00 35 1014.0
20260902214007 102 38 2.6 2.6 0.00 0.00 0.00 35 1014.0
20260902213503 101 308 0.9 3.5 0.00 0.00 0.00 36 1014.0
20260902213002 100 266 1.7 7.0 0.00 0.00 0.00 36 1013.9
20260902212458 100 273 5.2 7.8 0.00 0.00 0.00 35 1014.1
20260902211954 99 17 0.9 3.5 0.00 0.00 0.00 37 1014.3
20260902211450 100 263 4.3 7.0 0.00 0.00 0.00 37 1014.3
20260902210945 102 28 1.7 5.2 0.00 0.00 0.00 36 1014.4
20260902210440 101 48 0.9 7.0 0.00 0.00 0.00 35 1014.3
20260902205938 99 28 2.6 5.2 0.00 0.00 0.00 37 1014.4
20260902205433 101 57 3.5 7.8 0.00 0.00 0.00 37 1014.6
20260902204929 102 126 2.6 9.6 0.00 0.00 0.00 36 1014.4
20260902204428 102 19 3.5 5.2 0.00 0.00 0.00 35 1014.5
20260902203924 101 269 4.3 5.2 0.00 0.00 0.00 34 1014.6
20260902203419 100 79 0.9 3.5 0.00 0.00 0.00 35 1014.6
20260902202918 101 132 1.7 3.5 0.00 0.00 0.00 34 1014.7
20260902202414 101 42 4.3 6.1 0.00 0.00 0.00 36 1014.6
20260902201911 99 58 0.9 5.2 0.00 0.00 0.00 39 1015.0
20260902201411 101 294 2.6 3.5 0.00 0.00 0.00 37 1015.1
20260902200906 102 34 2.6 5.2 0.00 0.00 0.00 36 1014.9
20260902200401 102 23 2.6 5.2 0.00 0.00 0.00 37 1015.1
20260902195856 101 137 0.9 3.5 0.00 0.00 0.00 38 1015.0